Regional Weather Roundup
Issued by NWS Memphis, TN

Home | Current Version | Previous Version | Text Only | Print | Product List | Glossary On
Versions: 1 2 3 4 5 6 7 8 9 10 11 12 13 14 15 16 17 18 19 20 21 22 23 24 25 26 27 28 29 30 31 32 33 34 35 36 37 38 39 40 41 42 43 44 45 46 47 48 49 50
000
ASUS44 KMEG 050210
RWRMEG
MEMPHIS CWA HOURLY WEATHER ROUNDUP
NATIONAL WEATHER SERVICE MEMPHIS TN
900 PM CDT SAT JUL 04 2015

...WEST TENNESSEE...

CITY           SKY/WX    TMP DP  RH WIND       PRES   REMARKS
MEMPHIS INTL   CLOUDY    75  70  84 S5        29.99R
NWS MEMPHIS      N/A     73 N/A N/A MISG        N/A
JACKSON        CLOUDY    72  69  90 SW5       30.00R
LEXINGTON      CLOUDY    72  70  94 SW8       29.99R
DYERSBURG        N/A    N/A N/A N/A MISG        N/A
PARIS          CLEAR     70  70 100 CALM      29.99S


...EASTERN ARKANSAS...

CITY           SKY/WX    TMP DP  RH WIND       PRES   REMARKS
JONESBORO      MOCLDY    75  73  93 SE5       29.97S
WEST MEMPHIS   CLOUDY    74  73  97 CALM      29.98R
BATESVILLE     CLEAR     75  70  83 E3        29.98R
NEWPORT        PTCLDY    76  74  93 SE5       29.99R
WALNUT RIDGE   MOCLDY    75  70  83 E5        29.97R
BLYTHEVILLE    CLOUDY    74  74 100 SW3       29.98S
SEARCY         MOCLDY    75  73  93 S5        29.99R
STUTTGART      PTCLDY    77  68  73 S10       29.98R
PINE BLUFF     PTCLDY    75  70  84 S6        29.99R
MONTICELLO     CLEAR     73  71  93 CALM      30.00R


...NORTH MISSISSIPPI...

CITY           SKY/WX    TMP DP  RH WIND       PRES   REMARKS
TUPELO         CLEAR     72  70  93 CALM      30.00R
OLIVE BRANCH     N/A     72  72 100 S5        30.00R
TUNICA         PTCLDY    73  70  88 S6        29.99S
CLARKSDALE     CLEAR     73  73 100 S6        30.01R
CORINTH        CLOUDY    72  70  94 W3        30.00R
GREENWOOD      CLEAR     70  67  90 CALM      30.00S
COLUMBUS       MOCLDY    73  72  94 W5        30.01R
STARKVILLE     FAIR      70  68  94 CALM      30.02R
GOLDEN TRIANGL PTCLDY    75  68  78 W3        30.00R


...SOUTHEAST MISSOURI...

CITY           SKY/WX    TMP DP  RH WIND       PRES   REMARKS
WEST PLAINS    PTCLDY    74  68  81 SE5       30.01R
POPLAR BLUFF   CLOUDY    76  71  85 SE3       29.97R HAZE


...NORTHWEST ALABAMA...

CITY           SKY/WX    TMP DP  RH WIND       PRES   REMARKS
MUSCLE SHOALS  LGT RAIN  69  66  90 S3        30.02S


...MIDDLE TENNESSEE...

CITY           SKY/WX    TMP DP  RH WIND       PRES   REMARKS
NASHVILLE      LGT RAIN  70  69  97 S5        30.00S
CLARKSVILLE    CLOUDY    73  68  84 CALM      29.98S
COLUMBIA       CLOUDY    72  72 100 S5        29.99F


...WESTERN KENTUCKY...

CITY           SKY/WX    TMP DP  RH WIND       PRES   REMARKS
PADUCAH        CLOUDY    72  69  90 CALM      29.98R
FORT CAMPBELL  CLOUDY    74  69  82 NE2       29.98S


...CENTRAL ARKANSAS...

CITY           SKY/WX    TMP DP  RH WIND       PRES   REMARKS
LITTLE ROCK    MOCLDY    77  70  79 S8        29.97R


SKY/WX REPORTED AS FAIR MEANS FEW OR NO CLOUDS BELOW
12 THOUSAND FEET.




USA.gov is the U.S. government's official web portal to all federal, state and local government web resources and services.